Waarnemingen

Advertentie
Mijn weer
Ile Rousse, Frankrijk (7753): temperatuur & dauwpunt: 19.03.2019 23:00:00 - 25.03.2019 23:00:00 (CET)Ile Rousse, Frankrijk (7753): windsnelheid & windstoten: 19.03.2019 23:00:00 - 25.03.2019 23:00:00 (CET)Ile Rousse, Frankrijk (7753): windrichting: 19.03.2019 23:00:00 - 25.03.2019 23:00:00 (CET)Ile Rousse, Frankrijk (7753): luchtdruk: 19.03.2019 23:00:00 - 25.03.2019 23:00:00 (CET)Ile Rousse, Frankrijk (7753): zicht: 19.03.2019 23:00:00 - 25.03.2019 23:00:00 (CET)Ile Rousse, Frankrijk (7753): neerslag: 19.03.2019 23:00:00 - 25.03.2019 23:00:00 (CET)
Datum & Tijd tt [°C] td [°C] ff [km/u] ff [kn] fx [km/u] fx [kn] dd ppp [hPa] vv [km] rr [mm]
25.03.2019 23:00:00 11,2 8,2 19 10 24 13 O 1008,0 - 0,0
25.03.2019 22:00:00 11,8 8,6 11 6 17 9 O 1007,9 - 0,0
25.03.2019 21:00:00 12,2 8,7 9 5 19 10 O 1008,3 - 0,0
25.03.2019 20:00:00 12,8 8,5 13 7 31 17 OZO 1008,2 - 0,0
25.03.2019 19:00:00 13,2 7,8 7 4 16 8 WZW 1009,0 15 0,0
25.03.2019 18:00:00 14,6 9,8 8 5 25 13 OZO 1009,2 - 0,0
25.03.2019 17:00:00 14,3 10,5 13 7 24 13 NNO 1009,6 - 0,0
25.03.2019 16:00:00 15,1 9,7 14 8 23 12 NO 1010,5 25 0,0
25.03.2019 15:00:00 15,2 8,4 11 6 32 17 NNO 1011,4 - 0,0
25.03.2019 14:00:00 16,7 9,4 22 12 35 19 ONO 1011,9 - 0,0
25.03.2019 13:00:00 16,3 2,7 16 8 21 11 NO 1012,8 - 0,0
25.03.2019 12:00:00 16,3 3,4 10 6 24 13 NO 1013,9 - 0,0
25.03.2019 11:00:00 16,7 1,1 12 6 18 10 ONO 1014,7 - 0,0
25.03.2019 10:00:00 15,5 0,9 8 4 14 7 NO 1015,4 - 0,0
25.03.2019 09:00:00 14,5 6,3 5 3 12 6 W 1015,5 - 0,0
25.03.2019 08:00:00 14,1 2,6 6 3 10 6 ONO 1015,9 - 0,0
25.03.2019 07:00:00 13,7 0,7 5 3 15 8 NO 1016,0 20 0,0
25.03.2019 06:00:00 12,9 0,6 12 7 15 8 OZO 1016,1 - 0,0
25.03.2019 05:00:00 13,3 0,0 5 3 9 5 ZO 1016,4 - 0,0
25.03.2019 04:00:00 14,1 1,0 5 3 19 11 N 1017,1 25 0,0
25.03.2019 03:00:00 14,1 -0,4 4 2 20 11 Z 1017,8 - 0,0
25.03.2019 02:00:00 14,0 1,3 14 8 23 12 Z 1018,5 - 0,0
25.03.2019 01:00:00 14,0 -0,9 11 6 18 10 ZZW 1018,8 - 0,0
25.03.2019 00:00:00 13,6 3,1 9 5 13 7 ZW 1019,4 - 0,0
24.03.2019 23:00:00 13,0 7,2 10 5 26 14 ZZO 1020,0 - 0,0
24.03.2019 22:00:00 11,9 7,2 11 6 15 8 ZZW 1020,4 - 0,0
24.03.2019 21:00:00 12,3 9,1 4 2 11 6 O 1020,5 - 0,0
24.03.2019 20:00:00 12,4 9,4 11 6 23 13 ZW 1020,6 - 0,0
24.03.2019 19:00:00 13,0 9,4 16 8 24 13 WZW 1020,6 - 0,0
24.03.2019 18:00:00 14,9 9,9 14 7 29 15 W 1020,3 - 0,0
24.03.2019 17:00:00 15,5 9,4 18 10 29 16 W 1020,1 - 0,0
24.03.2019 16:00:00 15,4 11,4 19 10 30 16 W 1020,6 - 0,0
24.03.2019 15:00:00 15,6 12,0 20 11 29 16 W 1021,1 - 0,0
24.03.2019 14:00:00 15,2 11,8 21 11 31 17 W 1021,8 - 0,0
24.03.2019 13:00:00 15,3 10,7 22 12 33 18 W 1022,4 - 0,0
24.03.2019 12:00:00 15,3 8,8 21 11 29 15 W 1022,9 - 0,0
24.03.2019 11:00:00 14,9 7,7 18 10 26 14 W 1023,1 - 0,0
24.03.2019 10:00:00 15,5 4,8 5 3 13 7 WNW 1023,1 30 0,0
24.03.2019 09:00:00 15,0 3,8 7 4 13 7 WZW 1022,9 - 0,0
24.03.2019 08:00:00 14,6 3,4 7 4 11 6 ZW 1022,8 - 0,0
24.03.2019 07:00:00 13,1 3,5 6 3 9 5 WZW 1022,7 - 0,0
24.03.2019 06:00:00 13,8 3,0 2 1 9 5 ZZW 1022,3 - 0,0
24.03.2019 05:00:00 13,6 3,1 8 4 10 5 W 1022,1 - 0,0
24.03.2019 04:00:00 13,8 2,7 6 3 11 6 WZW 1022,1 20 0,0
24.03.2019 03:00:00 14,1 2,6 4 2 7 4 W 1022,3 - 0,0
24.03.2019 02:00:00 13,5 2,4 5 3 9 5 ZO 1022,7 - 0,0
24.03.2019 01:00:00 13,4 2,0 2 1 6 3 OZO 1022,7 - 0,0
24.03.2019 00:00:00 14,0 2,5 5 3 13 7 WZW 1022,8 - 0,0
23.03.2019 23:00:00 13,8 1,4 10 6 19 10 WZW 1022,8 - 0,0
23.03.2019 22:00:00 13,4 2,9 12 7 15 8 WZW 1022,7 - 0,0
23.03.2019 21:00:00 13,7 2,6 8 5 10 6 W 1022,4 - 0,0
23.03.2019 20:00:00 13,9 1,8 0 0 13 7 N 1022,0 - 0,0
23.03.2019 19:00:00 14,6 2,1 13 7 21 11 O 1021,4 20 0,0
23.03.2019 18:00:00 16,6 1,5 13 7 23 13 ONO 1021,3 - 0,0
23.03.2019 17:00:00 17,1 1,1 8 4 23 12 ONO 1021,3 - 0,0
23.03.2019 16:00:00 16,7 2,3 14 8 28 15 NO 1021,5 30 0,0
23.03.2019 15:00:00 16,8 5,7 16 9 36 19 NO 1021,8 - 0,0
23.03.2019 14:00:00 17,2 2,4 23 13 41 22 NO 1022,0 - 0,0
23.03.2019 13:00:00 17,4 5,3 16 9 35 19 ONO 1022,5 30 0,0
23.03.2019 12:00:00 16,1 4,2 17 9 35 19 ONO 1022,8 - 0,0
23.03.2019 11:00:00 16,9 2,8 21 11 32 17 NO 1022,7 - 0,0
23.03.2019 10:00:00 17,4 0,9 14 8 28 15 ONO 1023,2 20 0,0
23.03.2019 09:00:00 15,2 2,0 16 9 21 11 ONO 1023,4 - 0,0
23.03.2019 08:00:00 14,3 1,9 14 8 18 10 O 1023,4 - 0,0
23.03.2019 07:00:00 13,4 2,3 13 7 16 9 O 1023,4 20 0,0
23.03.2019 06:00:00 13,8 2,1 7 4 21 12 OZO 1023,2 - 0,0
23.03.2019 05:00:00 12,4 6,4 6 3 11 6 O 1023,6 - 0,0
23.03.2019 04:00:00 12,6 4,3 11 6 19 11 W 1023,7 20 0,0
23.03.2019 03:00:00 13,0 3,9 11 6 18 10 WZW 1023,8 - 0,0
23.03.2019 02:00:00 13,0 4,7 14 7 23 12 WZW 1024,3 - 0,0
23.03.2019 01:00:00 12,3 5,9 13 7 16 9 WZW 1024,5 - 0,0
23.03.2019 00:00:00 13,5 4,9 4 2 5 3 WZW 1024,4 - 0,0
22.03.2019 23:00:00 13,2 5,4 5 3 12 7 ONO 1024,6 - 0,0
22.03.2019 22:00:00 14,1 5,2 10 6 25 14 OZO 1024,6 - 0,0
22.03.2019 21:00:00 13,0 6,3 11 6 22 12 ONO 1024,9 - 0,0
22.03.2019 20:00:00 12,8 7,5 17 9 21 12 ONO 1024,5 - 0,0
22.03.2019 19:00:00 13,2 6,3 14 7 25 13 O 1024,0 20 0,0
22.03.2019 18:00:00 14,2 6,0 15 8 27 14 O 1024,0 - 0,0
22.03.2019 17:00:00 14,6 7,6 13 7 26 14 O 1024,6 - 0,0
22.03.2019 16:00:00 15,5 7,8 16 9 34 18 ONO 1024,8 20 0,0
22.03.2019 15:00:00 15,8 7,5 16 9 28 15 ONO 1025,2 - 0,0
22.03.2019 14:00:00 14,8 7,6 17 9 29 15 ONO 1025,7 - 0,0
22.03.2019 13:00:00 14,9 7,4 16 8 30 16 NO 1026,0 - 0,0
22.03.2019 12:00:00 15,8 7,8 19 11 39 21 ONO 1026,0 - 0,0
22.03.2019 11:00:00 14,9 7,9 26 14 39 21 NO 1026,0 - 0,0
22.03.2019 10:00:00 15,0 7,5 21 11 35 19 ONO 1026,1 20 0,0
22.03.2019 09:00:00 12,8 5,5 23 12 33 18 ONO 1025,8 - 0,0
22.03.2019 08:00:00 10,9 2,2 22 12 35 19 O 1025,6 - 0,0
22.03.2019 07:00:00 9,6 2,2 27 15 32 18 ONO 1025,5 22 0,0
22.03.2019 06:00:00 10,4 1,0 20 11 31 17 O 1025,2 - 0,0
22.03.2019 05:00:00 10,2 2,5 20 11 25 13 O 1025,2 - 0,0
22.03.2019 04:00:00 11,2 2,7 20 11 29 16 ONO 1025,2 - 0,0
22.03.2019 03:00:00 11,3 4,5 13 7 25 13 O 1025,5 - 0,0
22.03.2019 02:00:00 11,6 2,3 18 10 26 14 O 1025,8 - 0,0
22.03.2019 01:00:00 11,5 4,2 22 12 36 19 O 1025,9 - 0,0
22.03.2019 00:00:00 11,5 5,1 23 12 37 20 ONO 1026,0 - 0,0
21.03.2019 23:00:00 11,3 5,6 26 14 36 19 O 1026,1 - 0,0
21.03.2019 22:00:00 11,9 8,6 24 13 40 22 ONO 1026,2 - 0,0
21.03.2019 21:00:00 12,1 8,8 30 16 46 25 NO 1025,9 - 0,0
21.03.2019 20:00:00 12,8 7,7 38 21 62 34 NO 1025,4 - 0,0
21.03.2019 19:00:00 12,9 7,3 41 22 60 33 NO 1024,5 - 0,0
21.03.2019 18:00:00 13,6 5,5 45 24 64 35 NO 1024,0 - 0,0
21.03.2019 17:00:00 13,4 5,8 49 27 74 40 NO 1023,7 - 0,0
21.03.2019 16:00:00 12,9 5,8 56 31 75 40 NO 1023,7 - 0,0
21.03.2019 15:00:00 12,8 4,5 49 26 80 43 NNO 1024,5 - 0,0
21.03.2019 14:00:00 12,6 4,0 61 33 77 42 NO 1024,6 - 0,0
21.03.2019 13:00:00 12,5 4,0 57 31 82 44 NO 1025,3 30 0,0
21.03.2019 12:00:00 12,0 3,7 51 28 68 37 NNO 1026,2 - 0,0
21.03.2019 11:00:00 12,5 1,8 46 25 59 32 NO 1026,3 - 0,0
21.03.2019 10:00:00 11,9 1,8 41 22 53 29 NO 1026,1 - 0,0
21.03.2019 09:00:00 11,4 1,1 37 20 52 28 ONO 1026,3 - 0,0
21.03.2019 08:00:00 10,5 -0,6 42 23 55 30 O 1026,0 - 0,0
21.03.2019 07:00:00 9,0 -0,6 35 19 49 27 O 1025,5 30 0,0
21.03.2019 06:00:00 9,1 -2,5 32 18 46 25 O 1025,4 - 0,0
21.03.2019 05:00:00 8,7 -3,2 35 19 52 28 O 1025,3 - 0,0
21.03.2019 04:00:00 8,3 -2,4 30 16 48 26 O 1025,5 - 0,0
21.03.2019 03:00:00 8,7 -2,6 33 18 52 28 O 1025,5 - 0,0
21.03.2019 02:00:00 8,8 -1,9 38 20 54 29 O 1026,2 - 0,0
21.03.2019 01:00:00 9,9 -3,8 26 14 48 26 O 1026,5 - 0,0
21.03.2019 00:00:00 9,8 -3,2 27 14 45 24 O 1026,5 - 0,0
20.03.2019 23:00:00 10,3 -1,1 34 18 51 28 O 1026,7 - 0,0
20.03.2019 22:00:00 10,4 -0,4 31 17 48 26 O 1026,4 - 0,0
20.03.2019 21:00:00 10,8 -0,4 29 15 41 22 O 1026,3 - 0,0
20.03.2019 20:00:00 10,7 -0,2 26 14 37 20 O 1026,0 - 0,0
20.03.2019 19:00:00 11,4 0,5 29 16 56 30 O 1025,7 22 0,0
20.03.2019 18:00:00 12,7 2,0 42 23 68 37 ONO 1024,9 - 0,0
20.03.2019 17:00:00 12,1 3,8 51 27 69 38 NO 1024,2 - 0,0
20.03.2019 16:00:00 12,3 3,2 55 30 72 39 NO 1023,9 25 0,0
20.03.2019 15:00:00 13,2 1,5 53 28 66 36 NO 1023,8 - 0,0
20.03.2019 14:00:00 12,9 1,8 50 27 65 35 NO 1024,6 - 0,0
20.03.2019 13:00:00 12,6 1,6 43 23 63 34 ONO 1025,2 25 0,0
20.03.2019 12:00:00 12,8 2,6 52 28 69 37 NO 1025,0 - 0,0
20.03.2019 11:00:00 10,7 2,0 49 26 64 35 NO 1024,9 - 0,0
20.03.2019 10:00:00 11,8 1,1 37 20 52 28 O 1025,0 25 0,0
20.03.2019 09:00:00 10,8 1,9 33 18 50 27 ONO 1024,8 - 0,0
20.03.2019 08:00:00 9,8 0,7 38 21 59 32 O 1024,3 - 0,0
20.03.2019 07:00:00 8,6 0,1 37 20 51 28 O 1024,3 20 0,0
20.03.2019 06:00:00 8,5 -1,1 37 20 55 30 O 1023,3 - 0,0
20.03.2019 05:00:00 9,0 -2,3 32 18 55 30 O 1023,1 - 0,0
20.03.2019 04:00:00 9,2 -3,4 31 17 45 25 O 1022,9 - 0,0
20.03.2019 03:00:00 9,2 -3,1 30 16 47 26 O 1023,0 - 0,0
20.03.2019 02:00:00 9,4 -2,9 33 18 48 26 O 1023,4 - 0,0
20.03.2019 01:00:00 9,5 -1,3 33 18 49 26 O 1023,1 - 0,0
20.03.2019 00:00:00 9,5 0,9 26 14 40 21 OZO 1023,2 - 0,0
19.03.2019 23:00:00 9,5 1,1 25 14 36 20 O 1023,0 - 0,0

tt = temperatuur
td = dauwpunt
ff = windsnelheid
fx = windstoten
dd = windrichting
ppp = luchtdruk
vv = zicht
rr = neerslag

Weerstations in de omgeving